Theta_e
334 335 333 334 335 335 335 334 333 334 334 335 334 333 334 336 335 336 336 336 338 337 337 338 336 336 337 335 334 332 333 333 330 332 331 330 330 329 330 332 331 332
335 336 333 334 336 336 339 337 335 334 334 334 335 335 335 336 337 337 335 335 335 335 337 337 340 338 334 333 336 333 332 333 330 333 331 329 330 330 329 330 331 331
337 335 333 335 335 336 337 338 337 335 335 335 336 335 335 338 337 338 336 336 333 333 336 337 335 338 334 333 334 333 334 334 331 331 330 329 331 329 329 329 328 329
337 336 336 335 336 334 337 336 336 336 334 334 334 335 334 336 337 336 336 334 336 332 335 336 335 333 333 333 336 334 333 331 331 330 329 329 329 330 327 328 328 328
334 335 334 335 334 335 335 333 333 333 334 334 334 334 333 334 334 334 334 335 334 332 333 334 334 334 333 332 333 333 335 331 329 329 329 327 327 328 329 329 328 329
333 333 333 334 334 334 334 333 332 332 332 332 333 332 333 332 332 331 332 331 333 331 332 332 332 332 333 331 332 333 333 332 332 332 331 327 326 327 328 331 331 330
332 332 334 333 333 334 332 332 332 331 331 332 331 331 331 334 332 330 330 330 328 330 328 331 331 332 334 333 331 332 333 333 331 330 329 330 329 327 329 331 330 330
332 332 332 331 332 332 331 331 331 331 332 330 331 329 329 327 329 334 332 332 328 326 331 328 329 330 332 333 329 330 331 333 332 330 328 329 328 328 330 331 331 329
331 329 329 331 332 332 331 329 331 331 330 331 329 331 332 330 328 331 330 329 328 328 326 328 329 329 332 332 331 329 328 329 331 330 328 326 326 327 329 330 329 330
330 329 328 329 330 331 331 331 331 330 330 329 327 330 328 331 326 325 329 329 327 326 326 328 328 329 329 327 327 328 327 327 328 327 327 326 326 325 327 328 328 327
328 329 328 329 329 331 331 331 331 330 330 327 329 329 327 327 328 327 328 326 329 325 324 326 327 329 328 327 328 330 328 326 326 326 327 326 326 326 328 327 326 328
328 328 329 329 330 331 331 330 330 329 329 329 326 326 326 328 326 325 323 321 324 322 323 323 324 325 324 324 327 329 328 329 327 326 326 325 325 325 324 326 324 325
328 328 329 330 330 330 331 330 329 329 328 327 328 325 327 329 328 328 330 321 323 327 322 320 318 317 319 324 328 328 326 327 326 327 326 328 325 327 322 323 324 325
328 329 328 329 330 330 329 329 328 329 329 328 326 324 326 326 326 327 328 326 324 324 321 319 315 312 311 313 318 323 327 325 324 326 324 323 325 323 324 324 325 324
328 328 329 329 328 329 329 328 328 328 328 326 325 326 327 323 326 325 327 323 323 322 319 317 314 310 305 303 310 316 322 327 326 324 325 324 322 322 322 324 322 318
326 324 325 328 327 327 327 327 326 326 326 323 323 322 323 323 323 326 322 322 321 318 316 314 310 306 299 296 298 308 320 323 327 325 326 324 324 324 322 325 319 316
323 324 325 325 326 326 326 325 324 325 321 321 322 322 323 322 323 321 321 321 319 316 313 309 304 298 294 293 294 296 312 320 325 325 325 325 323 322 322 323 321 317
325 324 325 324 325 324 325 326 325 325 324 323 323 322 323 324 323 321 319 318 316 313 311 307 302 295 291 293 293 293 297 313 322 324 326 324 321 323 321 321 320 320
324 324 323 323 323 323 324 324 324 324 324 324 324 325 325 323 321 319 316 315 313 309 306 303 300 293 292 292 292 292 292 303 320 323 324 323 322 322 319 321 323 323
319 320 319 318 319 319 320 320 320 320 321 322 321 321 320 319 318 316 314 312 310 306 302 300 297 293 291 292 292 292 291 296 321 324 322 322 322 322 324 323 323 321
312 314 313 314 315 315 315 315 316 317 318 318 318 318 316 315 314 313 312 310 307 305 302 299 297 292 291 291 291 292 292 299 321 325 325 323 322 324 323 324 323 325
308 308 309 310 310 310 310 310 311 312 313 314 316 316 315 314 313 312 311 309 307 305 301 298 297 291 291 291 291 291 296 314 323 323 322 322 324 324 324 324 323 323
307 307 306 307 308 307 307 307 308 308 308 310 310 310 309 310 312 313 312 309 306 303 301 299 297 293 291 291 291 291 298 311 316 321 320 322 322 323 320 315 316 320
304 304 303 304 304 305 306 306 307 308 308 308 307 306 306 307 307 306 307 308 308 305 303 300 298 294 291 291 291 291 296 307 311 315 319 318 320 320 311 306 303 306
302 303 303 303 303 303 304 304 305 306 307 307 306 305 305 305 305 305 305 306 306 307 307 303 299 296 292 291 291 291 297 307 309 306 306 307 308 309 310 304 299 296
303 302 302 302 302 303 304 304 305 305 306 306 306 307 306 306 305 305 304 304 305 305 305 305 300 296 294 291 291 292 294 304 302 300 300 301 304 304 307 305 303 299
Wind_Speed
6 5 5 4 4 6 6 7 8 7 6 5 4 4 4 3 4 3 4 4 3 5 4 4 3 5 3 3 5 1 3 7 6 4 4 4 4 5 5 5 5 4
6 5 5 5 4 5 4 6 6 6 6 5 4 4 3 3 3 3 3 4 4 3 4 4 0 3 7 5 5 4 3 5 7 4 2 5 2 3 2 3 3 3
6 6 7 5 5 6 5 5 5 4 4 5 5 4 4 2 2 2 2 3 4 6 3 4 5 1 5 4 5 4 5 5 6 7 2 2 6 4 2 2 2 3
6 4 4 5 5 6 4 5 5 5 5 5 4 4 3 2 2 2 1 1 2 6 3 3 4 6 5 5 2 4 4 6 5 8 5 4 4 5 6 3 2 3
6 5 4 4 4 4 4 6 6 5 4 4 5 4 4 3 3 2 3 1 3 4 4 3 4 3 4 7 5 3 4 8 9 10 9 5 5 2 3 5 5 6
8 8 7 6 5 5 5 6 6 5 5 5 4 4 3 4 3 3 3 3 2 3 3 4 3 4 3 4 5 3 3 6 7 7 9 11 8 5 4 4 6 5
9 9 7 6 6 5 5 5 5 6 5 4 4 4 3 2 3 3 3 3 4 3 5 3 4 3 2 2 4 4 3 3 4 4 5 5 8 10 7 4 5 5
8 10 8 7 6 6 5 6 6 5 5 4 4 5 4 5 3 2 3 1 3 3 2 3 4 4 3 2 4 5 3 2 4 5 4 4 2 5 7 5 3 3
10 10 9 7 7 6 6 7 6 5 5 5 4 3 3 3 4 2 2 3 3 3 3 3 3 5 3 2 3 4 5 4 5 5 5 4 4 4 6 6 4 2
12 11 12 9 6 7 7 6 6 5 5 5 5 3 4 3 4 3 2 3 4 4 4 3 4 3 3 4 5 4 3 4 3 4 6 7 6 6 8 5 4 4
12 11 12 11 8 7 7 6 6 5 4 5 4 4 4 3 3 3 2 4 3 5 5 4 3 3 3 3 3 2 3 5 3 4 3 4 4 4 9 9 7 5
9 11 12 11 9 8 8 7 6 5 5 4 5 5 4 3 3 3 4 5 3 3 6 7 6 4 4 3 3 2 3 1 4 3 3 3 5 4 6 7 8 8
7 9 9 9 9 8 7 7 6 5 5 5 4 6 3 2 1 2 1 5 3 1 7 11 10 10 8 4 2 1 4 3 4 3 1 2 2 2 7 5 6 8
8 8 8 7 8 9 8 7 6 6 4 4 5 5 3 3 2 2 2 2 5 11 10 9 9 10 8 7 7 5 3 3 5 3 4 4 4 6 5 4 4 5
7 8 8 7 10 9 8 7 7 5 5 5 4 3 3 3 3 3 1 5 12 9 10 8 8 7 6 5 6 7 6 1 2 2 3 3 4 5 6 4 8 9
7 2 4 8 10 9 8 8 6 5 5 6 4 4 4 3 3 2 4 9 10 10 9 8 7 5 7 8 4 4 3 5 2 1 1 1 2 3 3 1 9 7
7 11 6 7 9 9 9 8 6 5 7 5 5 4 4 4 3 3 5 9 9 9 9 8 6 5 10 8 8 10 7 4 2 2 2 1 3 3 3 3 7 6
6 9 9 8 8 9 8 8 7 7 5 4 5 5 4 4 8 10 10 8 8 9 9 8 5 10 12 12 12 11 8 5 4 2 2 1 3 3 3 3 5 6
7 8 10 9 9 9 8 8 9 8 7 6 5 4 4 7 9 9 10 9 9 10 9 8 6 13 13 13 12 12 11 7 3 5 2 1 3 4 8 7 3 5
5 7 9 9 10 9 9 9 8 8 7 6 7 8 9 9 9 9 9 10 9 10 9 7 7 12 14 14 14 13 13 8 4 4 6 5 6 8 6 5 4 6
8 8 9 9 9 9 10 10 9 7 8 6 7 7 7 7 7 8 8 9 9 9 8 7 6 13 14 15 15 14 14 7 3 3 3 4 4 3 4 3 4 6
10 10 10 9 9 10 11 10 9 8 7 6 7 7 7 8 8 8 8 9 9 9 8 9 7 14 14 15 15 15 14 6 3 1 2 5 4 3 3 7 8 8
10 10 11 11 10 11 10 9 9 9 8 6 8 7 8 8 7 6 6 8 9 9 8 8 7 12 14 15 15 16 12 6 6 1 5 3 4 3 8 9 7 7
12 12 12 12 12 10 9 8 8 7 8 7 7 7 9 7 8 8 8 8 8 8 7 7 6 10 14 15 15 16 11 7 7 4 4 4 2 5 9 9 12 18
12 12 11 12 12 11 9 9 8 7 5 7 7 6 7 6 7 8 7 7 8 8 8 8 7 8 13 14 16 16 12 7 8 8 9 9 8 7 9 8 9 11
10 11 11 11 10 10 9 8 6 6 7 6 6 6 7 6 6 7 7 6 6 6 6 7 7 6 10 14 15 16 15 9 7 8 8 7 6 6 6 7 7 7
Wind_Direction
140 148 138 149 184 164 152 150 147 154 146 163 147 157 150 147 166 153 135 140 141 148 150 179 188 150 119 121 124 19 125 118 135 179 155 122 155 158 151 152 156 161
157 148 140 182 167 117 116 119 130 143 156 159 158 137 117 139 140 140 144 137 155 152 146 153 144 136 141 169 137 145 172 138 143 148 147 128 136 160 151 157 143 131
152 160 172 172 136 128 132 129 131 134 130 110 97 98 114 120 127 129 166 170 174 138 135 131 127 80 91 142 119 176 153 134 127 114 90 198 143 168 170 161 138 159
151 159 140 121 113 131 131 119 110 95 94 107 115 122 133 154 125 117 109 154 99 118 118 122 127 147 153 130 135 97 154 88 106 119 168 228 207 161 180 163 149 188
150 132 132 130 138 143 130 121 118 121 135 125 126 139 144 135 147 159 154 126 103 125 139 137 140 116 129 143 139 180 121 126 157 160 157 161 256 212 191 161 181 198
148 135 151 157 149 145 133 136 138 140 119 134 151 134 137 161 173 156 154 144 161 123 125 137 140 137 141 137 143 139 145 145 150 158 152 149 170 204 209 194 176 175
139 133 151 147 153 151 148 143 135 128 142 142 132 125 141 162 142 158 151 167 148 169 150 145 127 125 123 123 126 127 129 140 131 141 127 134 153 175 183 190 164 175
153 141 153 151 158 162 142 137 131 140 141 146 127 145 175 158 167 109 138 211 135 150 88 115 130 119 129 142 125 137 151 157 148 147 141 145 170 162 154 160 163 177
152 148 140 157 156 151 143 144 140 136 150 131 141 166 158 147 112 154 187 161 107 97 105 91 93 99 107 121 126 143 159 168 168 165 161 159 165 192 151 146 156 181
149 148 149 161 165 146 154 141 140 152 141 151 147 158 139 114 144 172 204 109 104 115 100 104 96 129 162 175 160 157 156 154 168 158 160 173 182 158 134 143 166 162
150 146 150 159 162 152 148 143 144 147 154 141 153 148 116 130 179 126 146 109 139 136 134 133 132 136 143 119 120 173 160 145 148 123 140 176 172 160 144 147 129 129
154 148 151 155 153 149 147 144 152 152 157 146 159 128 117 184 167 161 159 136 174 140 151 149 151 146 113 68 48 26 97 154 123 130 160 197 171 151 134 135 142 125
156 143 146 150 150 146 144 150 156 154 154 152 146 114 158 158 150 139 204 152 172 188 72 59 51 47 35 28 49 42 30 48 94 146 196 113 55 68 111 117 135 145
143 140 153 154 144 147 152 157 148 150 155 139 117 130 159 146 123 108 46 111 73 61 65 65 51 49 30 18 22 4 76 33 35 16 56 40 54 55 88 100 83 89
131 162 149 151 145 153 153 143 144 150 155 124 124 136 132 115 117 120 206 85 68 69 65 62 56 41 33 4 355 13 20 29 60 10 43 65 43 49 42 48 75 82
121 73 235 153 151 153 148 142 143 157 132 124 142 132 113 123 122 112 79 87 81 69 64 57 53 47 12 13 355 4 4 4 87 62 41 41 72 75 91 10 107 111
159 157 175 203 154 142 140 148 154 141 129 142 139 132 124 118 121 83 65 77 85 79 67 61 50 20 360 4 24 30 26 15 16 137 134 189 156 191 170 156 121 128
171 140 162 173 162 132 119 100 87 85 98 116 110 104 105 101 75 82 86 78 76 77 68 58 53 15 6 11 17 19 28 4 353 345 122 251 159 135 128 147 134 125
148 150 157 143 113 104 103 98 90 87 81 72 70 79 81 80 87 75 79 78 73 72 63 48 45 9 7 12 15 9 8 4 351 316 103 312 44 48 62 33 39 111
67 123 116 103 102 97 93 88 84 82 81 73 71 66 72 77 81 81 77 76 73 74 68 51 38 4 12 14 14 5 360 353 324 16 48 31 55 44 46 54 46 56
49 59 72 79 83 90 87 83 81 78 72 72 74 76 78 77 77 76 73 75 78 75 72 55 31 16 20 17 15 8 353 328 322 357 22 78 71 61 74 79 51 61
60 55 61 63 72 76 79 79 74 69 69 71 81 83 85 87 80 80 82 86 84 80 73 54 33 23 23 21 17 9 357 347 306 58 51 61 39 59 55 61 55 73
48 58 57 54 56 65 66 65 66 58 52 59 75 66 67 64 67 73 87 93 89 85 79 62 42 22 25 24 21 14 12 0 349 36 77 72 69 12 58 52 36 73
44 48 57 57 52 46 55 59 60 57 53 42 65 76 72 65 73 71 62 62 73 83 82 76 58 26 26 25 24 17 14 5 339 354 86 56 65 79 77 60 38 41
43 47 47 55 56 50 39 44 45 54 57 60 65 72 78 81 78 79 73 64 60 63 73 76 62 34 27 29 27 22 16 9 24 34 33 23 18 46 81 69 64 49
40 48 48 51 56 56 48 39 31 41 47 59 60 60 67 72 81 79 79 70 61 60 57 68 70 46 31 36 35 29 20 33 43 41 30 15 11 6 78 91 75 75